Regional Weather Roundup
Issued by NWS

Home | Current Version | Previous Version | Text Only | Print | Product List | Glossary Off
Versions: 1 2 3 4 5 6 7 8 9 10 11 12 13 14 15 16 17 18 19 20 21 22 23 24 25 26 27

000
ASUS45 KBOU 220607
RWRCO

WEATHER ROUNDUP FOR COLORADO
NATIONAL WEATHER SERVICE DENVER/BOULDER CO
1200 AM MDT SAT JUL 22 2017

NOTE: "FAIR" INDICATES FEW OR NO CLOUDS BELOW 12000 FEET WITH NO
SIGNIFICANT WEATHER AND/OR OBSTRUCTIONS TO VISIBILITY.

COZ001>005-013-030-031-220700-
...NORTHWEST COLORADO...

CITY           SKY/WX    TMP DP  RH WIND       PRES   REMARKS
CRAIG          FAIR      61  53  75 E3        30.26S
HAYDEN         FAIR      61  48  63 NE10      30.28F
MEEKER         FAIR      66  52  60 CALM      30.27R
RABBIT EARS PA MOCLDY    46  45  93 SE6       30.56R
STEAMBOAT SPGS FAIR      56  52  85 CALM      30.32R
WALDEN         FAIR      52  50  93 NE5       30.41S
$$

COZ006>008-011-220700-
...WEST CENTRAL VALLEYS...

CITY           SKY/WX    TMP DP  RH WIND       PRES   REMARKS
GRAND JUNCTION LGT RAIN  66  64  93 NE9       30.17F
MONTROSE       CLOUDY    65  58  78 S8        30.28F
EAGLE          LGT RAIN  60  58  92 N5        30.37F
RIFLE          FAIR      64  62  93 SW3       30.25F
DELTA          CLOUDY    70  59  68 NE10      30.25R
NUCLA          CLOUDY    64  54  68 W7        30.31S
$$

COZ017>023-064>068-220700-
...SOUTHWEST COLORADO...

CITY           SKY/WX    TMP DP  RH WIND       PRES   REMARKS
DURANGO        FAIR      61  56  83 W3        30.24S
CORTEZ         FAIR      67  57  70 CALM      30.22R
PAGOSA SPRINGS FAIR      62  50  65 W6        30.31S
TELLURIDE      CLOUDY    53  52  97 CALM      30.46F
WOLF CREEK PAS FAIR      50  36  57 CALM      30.67F
$$

COZ009-010-012-014-032>034-037-058>063-220700-
...CENTRAL COLORADO...

CITY           SKY/WX    TMP DP  RH WIND       PRES   REMARKS
ASPEN          FAIR      58  54  86 CALM      30.42F
BUENA VISTA    FAIR      63  47  57 NW15G24   30.40F
COPPER MTN     CLOUDY    48  43  81 CALM      30.70F
BERTHOUD PASS  HAZE      39  27  60 NW14      30.71F VSB 1/4
COTTONWOOD PAS CLOUDY    59  45  58 CALM      30.54S
GUNNISON       FAIR      61  53  75 W7        30.38F
KREMMLING      FAIR      63  55  77 SE3       30.37F
LEADVILLE      MOCLDY    50  46  86 N9        30.54R
MONARCH PASS   CLOUDY    48  41  76 W17       30.77F
SALIDA         MOCLDY    67  47  48 NW7       30.44S
SUNLIGHT       CLOUDY    45  43  93 E9G18     30.62F
WILKERSON PASS FOG       46  45  93 E14G20    30.65F VSB 1
$$

COZ069>075-220700-
...SAN LUIS VALLEY/SANGRE DE CRISTO MOUNTAINS...

CITY           SKY/WX    TMP DP  RH WIND       PRES   REMARKS
ALAMOSA        FAIR      66  46  48 NW8       30.29F
DEL NORTE      CLOUDY    64  46  50 W8        30.35R
LA VETA PASS   NOT AVBL
SAGUACHE         N/A    N/A N/A N/A MISG        N/A
$$

COZ035-036-038>040-220700-
...NORTHERN COLORADO FRONT RANGE...

CITY           SKY/WX    TMP DP  RH WIND       PRES   REMARKS
DENVER INTL AP LGT RAIN  62  59  90 SE9       30.26F
DMNS CITY PARK   N/A     63  61  92 SE10      30.27F
AURORA         NOT AVBL
FRONT RANGE AP LGT RAIN  63  61  94 SE6       30.28F
ERIE MUNI ARPT FAIR      64  60  88 SW7       30.24F
BOULDER MUN AP FAIR      64  57  77 S6        30.24F
CENTENNIAL     CLOUDY    62  60  93 E6        30.31F
BROOMFIELD     FAIR      63  59  88 S7        30.29F
FORT COLLINS   FAIR      63  58  83 S10       30.20F
LONGMONT       FAIR      66  60  80 S7        30.24F
$$

COZ041-046-047-076>085-087-088-220700-
...PIKES PEAK/PALMER DIVIDE AND SOUTHERN FOOTHILLS...

CITY           SKY/WX    TMP DP  RH WIND       PRES   REMARKS
COLO. SPRINGS  LGT RAIN  65  57  75 N20G33    30.28F
A. F. ACADEMY  MOCLDY    62  55  79 N10       30.32F
SCHRIEVER AFB  LGT RAIN  62  55  76 N23       30.26F
CHEYENNE MTN   LGT RAIN  63  52  67 NW28G33   30.27F
ELLICOTT       MIX PCPN N/A N/A N/A VRB6G21   30.26R
FALCON         LGT RAIN  60  54  78 N13G21    30.34F
FORT CARSON    LGT RAIN  66  56  71 N18G31    30.24R
LIMON          FAIR      65  56  72 N26G37    30.15F
MONUMENT HILL  MOCLDY    55  54  94 NW9       30.39S
CANON CITY     CLOUDY    66  61  82 E7        30.20S
WALSENBURG     FAIR      66  57  72 N12       30.23S
TRINIDAD       MOCLDY    72  50  45 VRB5      30.23R
$$

COZ042>045-048>051-090-091-220700-
...NORTHEAST COLORADO...

CITY           SKY/WX    TMP DP  RH WIND       PRES   REMARKS
GREELEY ARPT   MOCLDY    65  62  90 S9        30.19F
AKRON          RAIN      63  60  90 W7        30.22F FOG
BURLINGTON     CLOUDY    73  58  59 NW26G33   30.08F
WRAY           NOT AVBL
YUMA           LGT RAIN  63  50  63 NW16G29   30.15F
STERLING       RAIN      64  63  94 S13       30.18R
HOLYOKE        LGT RAIN  70  59  68 W24G31    30.09S
FORT MORGAN    FAIR      64  60  87 SE8       30.22S
$$

COZ086-089-092>099-220700-
...SOUTHEAST COLORADO...

CITY           SKY/WX    TMP DP  RH WIND       PRES   REMARKS
PUEBLO         CLOUDY    73  56  54 N21G29    30.15R
LA JUNTA       FAIR      74  56  53 N9        30.10R
LAMAR          FAIR      78  55  44 N20G26    30.02R
SPRINGFIELD      N/A     75  51  43 SW9       30.05R
$$




USA.gov is the U.S. government's official web portal to all federal, state and local government web resources and services.